Location: *
(37.5211°N, 127.1216°E)
Time: 13:24:33
(UTC+00:00)

Daily predictions for brighter satellites

Satellite Brightness Start Highest point End
(mag) Time Altitude Azimuth Time Altitude Azimuth Time Altitude Azimuth
Lacrosse 4 Rocket 3.1 12:04:01 10° NW 12:07:39 28° WSW 12:11:16 10° SSW
Resurs 01 Rocket 4.3 12:07:30 10° SW 12:10:01 15° W 12:12:33 10° WNW
Cosmos 1758 3.8 12:09:06 10° NNW 12:12:41 51° W 12:16:16 10° S
Okean 2 4.5 12:11:27 20° ESE 12:12:50 24° E 12:16:01 10° NE
GEOS 3 Rocket 3.9 12:08:37 10° NNE 12:13:53 74° NW 12:19:09 10° SW
USA 215 3.6 12:14:30 15° ESE 12:19:54 58° NE 12:26:17 10° NW
Cosmos 1470 Rocket 4.3 12:16:02 10° NNW 12:20:17 52° W 12:24:33 10° S
Cosmos 1844 4.3 12:16:50 16° SSE 12:20:35 34° ESE 12:25:31 10° NE
ERS-1 Rocket 3.0 12:21:27 15° S 12:25:35 84° W 12:30:37 10° NNW
Cosmos 2263 Rocket 4.0 12:20:48 10° SW 12:25:56 35° WNW 12:31:07 10° N
Cosmos 1933 Rocket 3.5 12:26:56 10° N 12:31:17 89° E 12:34:00 22° S
Helios 1B rocket 3.3 12:28:39 13° SSW 12:31:41 40° W 12:35:10 10° NNW
Cosmos 1703 4.1 12:32:05 26° E 12:32:15 26° E 12:35:12 10° NNE
SL-08 R/B 4.4 12:26:31 10° N 12:32:35 69° E 12:36:44 21° SSE
Okean-O 2.8 12:33:21 19° S 12:36:26 67° WSW 12:40:48 10° NNW
SAR-Lupe-2 4.1 12:35:39 33° ESE 12:36:43 44° ENE 12:40:10 10° N
IRS-1C Rocket 4.3 12:34:40 25° SE 12:37:31 54° ENE 12:42:37 10° N
Cosmos 2016 Rocket 4.0 12:31:34 10° N 12:37:58 89° E 12:42:46 19° S
Cosmos 1763 Rocket 4.4 12:35:06 10° N 12:39:39 32° ENE 12:41:42 24° ESE
Meteor 2-16 Rocket 4.4 12:35:16 16° S 12:40:15 72° E 12:46:20 10° NNE
Spot 2 Rocket 3.4 12:38:01 25° SSE 12:41:01 79° ENE 12:46:07 10° N
Cosmos 909 Rocket 4.4 12:34:27 10° NNW 12:41:52 69° WSW 12:46:06 23° SSE
Cosmos 1802 Rocket 4.3 12:35:58 10° NNW 12:42:21 71° W 12:47:39 15° S
Terra 2.2 12:41:26 19° S 12:44:41 60° W 12:49:21 10° NNW
SL-16 R/B 3.1 12:39:24 10° NW 12:44:44 43° WSW 12:48:56 16° S
Cosmos 2251 Rocket 3.7 12:42:07 23° S 12:45:11 53° ESE 12:50:24 10° NNE
GP-B 3.5 12:41:27 10° NNE 12:45:37 43° E 12:46:46 35° SE
Cosmos 1869 Rocket 3.4 12:41:49 10° N 12:46:11 84° E 12:48:04 33° S
CZ-3 Stage 3 4.2 12:37:28 10° W 12:51:12 27° SW 12:53:46 20° S
Meteor 1-12 Rocket 4.4 12:46:03 10° NNW 12:52:03 80° W 12:55:54 23° S
Cosmos 1943 3.2 12:50:44 10° NNW 12:56:28 76° ENE 12:58:59 34° SSE
Cosmos 1953 2.1 12:53:03 10° N 12:56:49 79° W 12:57:53 45° S
Cosmos 2228 Rocket 3.4 12:58:50 42° SE 12:59:36 47° E 13:03:50 10° NNE
Cosmos 2061 Rocket 3.9 12:53:47 10° N 13:00:02 89° E 13:03:28 28° S
BREEZE-M DEB (TANK) 4.0 13:04:40 10° WNW 13:05:50 18° WSW 13:05:50 18° WSW
Meteor 1-16 Rocket 4.5 13:00:54 10° NNW 13:06:48 73° W 13:10:02 28° S
SPOT 3 Rocket 3.4 13:05:05 38° SSE 13:07:09 86° ENE 13:12:20 10° NNW
Cosmos 1862 Rocket 3.5 13:06:51 50° SSE 13:07:47 65° E 13:12:08 10° NNE
PSLV R/B 3.4 13:08:08 63° ENE 13:08:08 63° ENE 13:11:15 10° N
Cosmos 2233 Rocket 4.2 13:04:47 10° NNW 13:11:05 71° W 13:14:43 27° S
IRIDIUM 103 4.4 13:09:54 42° SSE 13:11:29 62° E 13:16:37 10° N
COBE Rocket 4.0 13:07:47 10° NNE 13:12:32 49° E 13:13:12 46° SE
ATLAS 2AS CENTAUR R/B 2.7 13:07:01 10° SSW 13:14:08 68° ESE 13:21:06 10° NE
Cosmos 540 Rocket 3.6 13:11:41 10° N 13:16:43 58° ENE 13:17:55 45° ESE
Okean O Rocket 4.0 13:15:17 10° SW 13:17:54 16° W 13:20:33 10° NW
Cosmos 1603 3.7 13:19:08 10° NNW 13:24:45 67° ENE 13:26:18 47° SE
Okean 1-7 2.8 13:27:52 73° E 13:27:53 73° E 13:32:00 10° N
IRIDIUM 106 4.2 13:28:10 47° S 13:29:44 87° W 13:34:59 10° N
Cosmos 1844 Rocket 3.5 13:26:24 10° SW 13:31:52 50° WNW 13:37:23 10° NNE
USA 59 Rocket 1.1 13:30:27 10° NNW 13:34:05 36° NE 13:34:47 34° ENE
Cosmos 1891 Rocket 4.5 13:27:39 10° N 13:34:08 80° E 13:36:11 46° SSE
SL-12 R/B(2) 4.1 13:30:08 29° S 13:34:23 64° ESE 13:43:18 10° NE
Ariane Rocket 3.7 13:41:08 36° SW 13:42:36 46° W 13:47:29 10° NNW
BREEZE-M DEB (TANK) 4.4 13:24:19 10° SW 13:43:28 65° SE 13:48:15 10° ENE
Cosmos 2344 4.2 13:36:29 10° NNW 13:45:13 88° WSW 13:50:52 36° SSE
Cosmos 676 Rocket 3.9 13:45:03 59° SSW 13:46:05 88° ESE 13:51:21 10° NNE
Cosmos 1892 4.4 13:50:49 21° WNW 13:50:49 21° WNW 13:52:50 10° NNW
Cosmos 1703 Rocket 3.9 13:56:49 56° NE 13:56:49 56° NE 14:00:24 10° NNE
Meteor 2-5 Rocket 3.9 14:02:12 56° ESE 14:02:38 58° E 14:08:27 10° NNE
USA 215 3.9 14:01:51 35° SSW 14:03:00 37° SW 14:08:59 10° WNW
Cosmos 841 Rocket 3.8 13:59:10 10° N 14:04:16 51° ENE 14:04:32 51° E
ARIANE 5 R/B 3.7 14:07:31 36° ENE 14:07:31 36° ENE 14:11:14 10° N
Cosmos 468 Rocket 4.0 14:04:19 10° NNW 14:09:22 64° WSW 14:09:33 63° WSW
SJ 16-02 1.8 14:14:41 57° NW 14:14:41 57° NW 14:18:41 10° N
Cosmos 1271 Rocket 4.2 14:16:43 31° NW 14:16:43 31° NW 14:19:21 10° N
Cosmos 1833 Rocket 3.7 14:17:45 10° N 14:22:53 35° ENE 14:23:42 33° E
Cosmos 968 Rocket 3.5 14:24:00 72° ENE 14:24:00 72° ENE 14:28:51 10° NNE
Timation 2 Rocket 4.0 14:29:32 55° E 14:29:32 55° E 14:34:58 10° NNE
NOSS 2-1 (D) 4.3 14:28:06 10° NW 14:31:10 51° WNW 14:31:10 51° WNW
ATLAS 3B R/B 3.7 14:24:44 10° NNW 14:32:16 46° NE 14:35:28 31° E
Cosmos 1850 Rocket 4.0 14:36:31 78° N 14:36:31 78° N 14:41:20 10° NNE
Cosmos 1943 Rocket 3.5 14:38:20 27° ENE 14:38:20 27° ENE 14:41:39 10° NE
ASTEX 1 4.4 14:35:36 10° NNW 14:40:07 37° WNW 14:40:34 36° W
MetOp-A 4.2 14:42:30 57° NNW 14:42:30 57° NNW 14:45:57 10° NNW
Cosmos 2279 Rocket 4.4 14:44:27 10° N 14:50:25 48° E 14:50:51 47° E
Meteor 1-24 Rocket 4.5 14:54:23 42° WSW 14:55:24 46° WNW 15:01:00 10° N
ALOS 2 3.4 15:00:27 49° N 15:00:27 49° N 15:03:44 10° N
Cosmos 371 Rocket 4.3 15:04:54 40° WNW 15:04:54 40° WNW 15:09:27 10° N
Tsikada Rocket 4.4 15:04:10 49° WSW 15:05:03 53° W 15:11:12 10° N
Cosmos 2278 Rocket 2.3 15:11:52 64° ENE 15:11:52 64° ENE 15:16:52 10° NNE
Cosmos 2082 Rocket 4.1 15:07:46 10° N 15:12:07 22° NE 15:14:16 18° E
BREEZE-M DEB (TANK) 3.5 15:16:01 48° NE 15:16:01 48° NE 15:22:12 10° NE
USA 59 Rocket 2.5 15:19:35 10° WNW 15:20:40 15° W 15:20:40 15° W
Cosmos 2180 Rocket 4.5 15:20:53 10° N 15:26:59 67° E 15:27:12 66° E
In-Cosmos 22 Rocket 4.2 15:35:57 80° NE 15:35:57 80° NE 15:41:29 10° N
Okean 1 Rocket 4.5 15:35:34 10° N 15:38:47 33° NE 15:38:47 33° NE
Cosmos 2369 Rocket 4.4 15:41:43 13° E 15:41:43 13° E 15:43:59 10° ENE
ATLAS 5 CENTAUR R/B 3.8 15:56:27 15° NNE 15:56:27 15° NNE 15:57:03 10° NNE
Okean 2 Rocket 4.0 15:49:51 10° N 15:53:02 46° N 15:53:02 46° N
Nadezhda 4 Rocket 3.9 15:58:56 77° WSW 15:59:12 79° W 16:05:30 10° N
USA 229 DEB 4.0 15:54:56 10° NW 16:02:36 68° WSW 16:03:42 62° SSW
USA 229 4.0 15:55:02 10° NW 16:02:42 69° WSW 16:03:50 62° SSW
Cosmos 1833 Rocket 4.1 16:01:50 10° NW 16:05:21 27° W 16:05:21 27° W
Cosmos 2195 Rocket 4.3 16:08:43 79° SE 16:08:58 81° E 16:15:06 10° N
Cosmos 1570 Rocket 4.3 16:07:18 10° N 16:12:34 58° ENE 16:12:42 58° ENE
Cosmos 1092 Rocket 4.0 16:12:48 63° ESE 16:13:22 66° E 16:19:39 10° NNE
CZ-2C R/B 3.2 16:13:39 47° E 16:14:10 49° ENE 16:19:20 10° N
Cosmos 1455 Rocket 4.2 16:12:42 10° N 16:16:04 38° NE 16:16:04 38° NE
Cosmos 1943 Rocket 3.2 16:19:48 32° WNW 16:20:30 33° WNW 16:25:28 10° N
USA 234 3.3 16:14:11 10° NE 16:20:37 58° SE 16:20:53 57° SE
ATLAS 3B R/B 3.5 16:15:50 10° NW 16:22:40 39° WSW 16:22:40 39° WSW
Gbstr 26 Del rocket 3.9 16:24:55 64° ESE 16:24:55 64° ESE 16:31:29 10° NE
Cosmos 2026 Rocket 3.8 16:25:19 77° S 16:25:49 89° W 16:32:03 10° N
SL-4 R/B 3.6 16:25:54 10° NW 16:28:24 31° NNW 16:28:24 31° NNW
Cosmos 2208 Rocket 4.2 16:26:33 10° N 16:31:41 62° ENE 16:31:57 61° E
Cosmos 1025 Rocket 4.5 16:35:53 29° NW 16:35:53 29° NW 16:38:41 10° NNW
USA 81 4.2 16:36:34 64° WNW 16:36:34 64° WNW 16:41:32 10° N
CZ-2C R/B 3.0 16:34:02 10° N 16:38:55 74° NW 16:38:55 74° NW
EO 1 Delta rocket 4.3 16:40:18 63° W 16:40:18 63° W 16:45:20 10° NNW
Atlas Centaur 2 3.2 16:44:49 42° SE 16:44:49 42° SE 16:50:45 10° ESE
H-2A R/B 3.8 16:43:41 10° NE 16:46:34 21° E 16:46:34 21° E
SeaSat 1 2.7 16:50:27 55° WNW 16:50:27 55° WNW 16:54:31 10° NNW
Cosmos 2228 3.9 16:48:35 10° N 16:52:24 40° ENE 16:52:24 40° ENE
Cosmos 1486 Rocket 4.4 16:55:23 48° WNW 16:55:33 48° WNW 17:00:38 10° N
Cosmos 2278 Rocket 4.3 16:53:40 14° W 16:55:51 17° NW 16:59:24 10° NNW
Cosmos 1607 3.9 16:55:14 61° WSW 16:56:19 75° WNW 17:02:31 10° NNE
Cosmos 2082 Rocket 2.5 16:50:56 10° NNW 16:56:03 51° W 16:56:03 51° W
Cosmos 1777 Rocket 3.9 16:57:04 71° W 16:57:14 71° WNW 17:02:28 10° NNE
Resurs 1-4 Rocket 3.6 16:56:35 10° NE 17:00:57 26° E 17:02:32 22° ESE
Nimbus 7 Rocket 4.4 16:55:19 10° N 17:01:14 68° WNW 17:02:14 58° WSW
Cosmos 1544 Rocket 4.5 16:58:25 10° N 17:02:29 40° E 17:02:56 39° E
Lacrosse 5 rocket 2.5 17:03:48 35° ENE 17:03:48 35° ENE 17:06:24 10° NE
NOSS 3-3 (A) 3.9 17:02:53 49° W 17:03:43 54° NW 17:09:33 10° NNE
Meteor 2-20 4.4 17:03:10 10° N 17:09:21 84° E 17:11:04 51° SSE
COSMOS 2406 3.1 17:07:07 10° NNW 17:12:48 66° WSW 17:13:16 63° SW
ISS -1.1 17:14:52 14° E 17:14:52 14° E 17:15:42 10° E
H-2A R/B 4.2 17:18:23 19° NW 17:18:23 19° NW 17:19:41 10° NW
Cosmos 990 Rocket 3.8 17:18:00 68° S 17:18:37 80° ESE 17:23:46 10° NNE
ADEOS II 3.8 17:15:14 10° NE 17:19:27 24° E 17:21:52 18° SE
FENGYUN 3A 4.0 17:14:38 10° NNE 17:19:55 56° E 17:21:19 43° SSE
SL-19 R/B 4.5 17:14:31 10° N 17:20:02 61° WNW 17:21:12 50° WSW
MSX 3.7 17:14:35 10° NNE 17:20:21 89° ESE 17:21:40 56° SSW
Cosmos 2369 Rocket 2.2 17:23:29 56° SW 17:24:37 73° WNW 17:30:21 10° NNE
MOZ.5/SAFIR/RUBIN 5/SL-8 4.0 17:24:36 47° SE 17:25:42 65° ENE 17:30:16 10° N
Cosmos 1354 Rocket 4.2 17:25:47 52° WSW 17:26:31 57° WNW 17:31:41 10° N
Cosmos 773 Rocket 4.2 17:22:00 10° NNW 17:26:56 49° W 17:26:56 49° W
Cosmos 1975 Rocket 4.3 17:28:06 29° WNW 17:28:06 29° WNW 17:31:38 10° NNW
IDEFIX/ARIANE 42P 2.5 17:22:56 10° N 17:28:08 71° WNW 17:29:01 58° SW
Cosmos 1461 2.9 17:32:35 10° NNW 17:36:40 73° ENE 17:37:25 55° ESE
USA 307 3.7 17:35:27 10° NW 17:39:17 44° NE 17:42:45 10° ESE
NPP 3.7 17:35:38 10° N 17:40:59 65° WNW 17:42:22 47° SW
CZ-2D R/B 2.4 17:36:58 10° NNE 17:42:14 59° E 17:44:17 35° SSE
Cosmos 2297 4.2 17:44:11 36° WSW 17:45:45 45° WNW 17:51:10 10° N
ALOS 3.2 17:43:58 10° NNE 17:48:16 40° E 17:50:14 26° SSE
SEDSat Delta rocket 3.9 17:49:21 41° S 17:49:42 42° S 17:54:39 10° ESE
CZ-2C R/B 4.2 17:55:06 18° W 17:55:06 18° W 17:58:16 10° NW
Cosmos 1553 Rocket 4.5 17:50:43 10° NNW 17:56:21 40° W 17:57:58 34° WSW
BlueWalker 3 1.9 17:57:44 60° WNW 17:58:04 65° NW 18:01:41 10° NE
TSX-5 4.2 17:55:08 10° NNW 17:58:08 44° ENE 17:59:29 26° ESE
Envisat 3.7 17:58:14 10° NNE 18:03:09 49° E 18:06:11 22° SSE
USA 234 4.1 17:57:24 10° NNE 18:03:26 42° NNW 18:08:13 16° W
S3M 4.0 17:57:04 10° N 18:03:28 78° W 18:07:20 25° S
Cosmos 2285 Rocket 4.4 18:02:44 31° WSW 18:05:19 48° WNW 18:11:28 10° N
Cosmos 2058 2.8 18:05:05 53° SW 18:05:42 62° W 18:09:39 10° N
Cosmos 2266 Rocket 4.3 18:04:40 33° SW 18:07:10 52° W 18:13:19 10° N
Cosmos 883 Rocket 4.5 18:08:17 10° N 18:14:35 82° W 18:19:26 18° S
Cosmos 1400 Rocket 2.6 18:10:56 10° NNW 18:14:47 72° W 18:15:57 42° S
Cosmos 372 Rocket 3.9 18:14:00 34° SSW 18:16:14 75° WNW 18:21:23 10° NNE
Cosmos 1536 Rocket 4.5 18:19:09 29° W 18:19:58 31° WNW 18:23:48 10° NNW
H-2A R/B 3.2 18:18:48 10° NNW 18:22:10 26° WNW 18:23:04 24° W
NOSS 3-4 (A) 4.4 18:15:59 10° NNW 18:23:01 66° NE 18:31:10 10° SE
NOSS 3-4 (C) 4.4 18:16:06 10° NNW 18:23:08 65° NE 18:31:17 10° SE
SL-16 R/B 3.5 18:20:49 10° SE 18:26:45 49° ENE 18:32:44 10° N
Atlas Centaur 2 3.3 18:26:51 19° WSW 18:31:49 42° SSW 18:39:22 10° SE
Cosmos 1602 3.2 18:33:09 39° SSW 18:34:11 67° W 18:37:26 10° N
Cosmos 2315 Rocket 4.1 18:29:16 10° NNW 18:35:28 59° W 18:40:34 16° SSW
Cosmos 1655 Rocket 4.3 18:33:32 23° SSW 18:37:27 54° W 18:43:42 10° N
Meteor 2-3 Rocket 3.9 18:32:50 15° S 18:37:38 79° E 18:43:27 10° NNE
Cosmos 1862 3.4 18:37:03 31° SW 18:38:25 48° W 18:42:02 10° N
Lacrosse 5 rocket 3.2 18:37:44 12° W 18:40:12 20° NW 18:43:10 10° NNE
Resurs 1-4 Rocket 2.9 18:35:57 10° N 18:40:43 35° WNW 18:43:34 21° WSW
Cosmos 1538 Rocket 4.1 18:36:48 10° NNW 18:42:00 58° WSW 18:47:13 10° S
Cosmos 1606 Rocket 3.9 18:40:39 10° NNW 18:44:44 44° W 18:47:15 21° SSW
CZ-2C R/B 4.1 18:40:42 10° NE 18:44:49 29° E 18:49:01 10° SSE
CZ-4C R/B 1.5 18:44:22 24° SW 18:46:47 85° NW 18:51:43 10° NNE
Cosmos-2242 4.3 18:43:12 10° N 18:47:06 39° E 18:51:00 10° SSE
ISS -2.6 18:47:45 19° W 18:49:39 36° NW 18:52:48 10° NE
Cosmos 1933 3.1 18:47:03 10° N 18:50:55 77° W 18:54:42 10° S
Cosmos 858 Rocket 4.5 18:49:47 18° SSW 18:53:35 71° WNW 18:58:45 10° NNE
Cosmos 1937 Rocket 3.9 18:51:37 19° SW 18:55:03 49° WNW 19:00:03 10° N
H-2A R/B 2.3 18:52:53 10° NNE 18:58:01 67° ESE 19:02:58 10° S
ADEOS II 2.8 18:54:16 10° N 18:59:02 37° WNW 19:02:41 16° SW
Cosmos 1898 Rocket 4.5 18:56:08 17° WSW 18:59:20 32° WNW 19:03:58 10° N
CZ-3 R/B 3.9 18:39:31 16° SW 19:02:03 45° S 19:10:43 10° ESE
Cosmos 1782 4.1 19:00:07 10° NW 19:02:46 19° W 19:03:56 17° WSW
Cosmos 1892 Rocket 4.4 19:02:02 17° SW 19:04:46 33° WNW 19:08:46 10° NNW
AQUA 4.1 19:01:13 10° N 19:05:44 49° WNW 19:09:36 14° SW
Cosmos 1441 Rocket 2.9 19:05:27 14° SSW 19:08:26 68° W 19:11:59 10° N
USA 307 3.7 19:06:06 10° WNW 19:08:57 20° WSW 19:11:30 10° S
Cosmos 2369 Rocket 4.4 19:08:15 10° WNW 19:09:38 11° NW 19:11:02 10° NNW
Genesis I 3.1 19:11:31 13° S 19:13:15 33° ESE 19:15:19 10° NE
Cosmos 1656 3.7 19:10:14 10° SSW 19:15:50 82° WNW 19:21:30 10° NNE
USA 281 3.3 19:10:02 10° NNE 19:16:39 86° WNW 19:23:13 10° SSW
DMSP B5D2-2 4.4 19:12:04 10° S 19:17:07 47° W 19:22:12 10° NNW
Cosmos 1758 Rocket 3.6 19:14:35 10° S 19:18:50 77° E 19:23:09 10° N
Cosmos 2297 Rocket 4.1 19:14:04 10° N 19:19:12 34° ENE 19:24:18 10° SE
CZ-2D R/B 3.9 19:18:23 10° NNW 19:21:39 17° WNW 19:24:54 10° W
Cosmos 1602 Rocket 4.2 19:18:07 10° S 19:22:18 55° E 19:26:30 10° NNE
ALOS 3.9 19:21:52 10° NNW 19:24:56 18° WNW 19:28:00 10° WSW
USA 32 4.2 19:21:09 10° SSW 19:26:15 54° W 19:31:23 10° N
Cosmos 2112 Rocket 4.0 19:24:04 10° NNW 19:29:18 86° WSW 19:34:33 10° SSE
Meteor 2-2 Rocket 4.3 19:26:12 10° NNW 19:31:52 66° W 19:37:26 10° S
Cosmos 1626 Rocket 3.7 19:28:44 10° SSW 19:32:54 53° W 19:37:07 10° N
UNK 3.7 19:29:06 10° SSE 19:33:37 87° W 19:38:09 10° NNW
SEDSat Delta rocket 3.9 19:30:07 10° WSW 19:35:14 40° S 19:39:45 10° ESE
ACS3 Solar Sail 4.3 19:31:48 10° NE 19:35:48 18° E 19:39:50 10° SE
BlueWalker 3 4.4 19:34:35 10° NW 19:36:21 13° NNW 19:38:08 10° N
Cosmos 1867 3.6 19:31:17 10° SSW 19:36:43 84° WNW 19:42:12 10° NNE
Cosmos 44 3.7 19:33:16 10° SW 19:37:18 40° NW 19:41:25 10° NNE
ADEOS Rocket 3.9 19:30:45 10° NNE 19:37:37 64° ESE 19:45:05 10° S
Cosmos 1980 Rocket 4.5 19:34:38 10° SSE 19:38:47 22° E 19:42:56 10° NE
